Location: Leipzig
(51.3397°N, 12.3731°E)
Time: 19:25:44
(UTC+01:00)

ISS - Pass Details

Date: 23 October 2025
Orbit: 414 x 421 km, 51.6° (Epoch: 07 November)

Event Time Altitude Azimuth Distance (km) Brightness Sun altitude
Exits shadow 04:50:13 18° 97° (E) 1,104 -1.0 -28.2°
Drops below altitude 10° 04:51:21 10° 85° (E) 1,505 0.0 -28.0°
Sets 04:53:35 0° 76° (ENE) 2,373 1.4 -27.7°
